Tracking 30995 objects as of 5-Jul-2025
HD Live streaming from Space Station
objects crossing your sky now

STARLINK-32194

Track STARLINK-32194 now!
10-day predictions
STARLINK-32194 is classified as:


NORAD ID: 60315
Int'l Code: 2024-133Q
Perigee: 481.6 km
Apogee: 483.2 km
Inclination: 53.2 °
Period: 94.1 minutes
Semi major axis: 6853 km
RCS: Unknown
Launch date: July 28, 2024
Source: United States (US)
Launch site: AIR FORCE WESTERN TEST RANGE (AFWTR)
Your satellite tracking list
Your tracking list is empty




NASA's NSSDC Master Catalog

Two Line Element Set (TLE):
1 60315U 24133Q   25185.77765497  .00000259  00000-0  20861-4 0  9998
2 60315  53.1615   8.6067 0001185  79.9985 280.1150 15.30194617 53683
Source of the keplerian elements: AFSPC